Powrót do katalogu

STARLINK-30126

AktywnyŁącznośćVLEO
NORAD 56694·PAYLOAD·🇺🇸 United States

Wystrzelony May 19, 2023 z Cape Canaveral Space Force Station

Loading…

Następne Przeloty (najbliższe 24 godziny)

TLE

ŚwieżeSource: CelesTrak SupGP

Epoka: Sep 15, 2026, 02:31 UTC

1 56694C 23067G   26258.10534722  .00010291  00000+0  37276-3 0  2583
2 56694  43.0023 284.5786 0001507 260.3618 355.5422 15.27573161    18

Śledź STARLINK-30126 w czasie rzeczywistym z AllMySat

Download on the App Store